TimeMST,TemperatureF,Dew PointF,Humidity,Sea Level PressureIn,VisibilityMPH,Wind Direction,Wind SpeedMPH,Gust SpeedMPH,PrecipitationIn,Events,Conditions,WindDirDegrees,DateUTC
12:53 AM,18.0,12.0,78,30.12,10.0,North,4.6,-,N/A,,Clear,360,2012-12-13 07:53:00
1:53 AM,21.0,12.9,71,30.10,10.0,NE,9.2,-,N/A,,Clear,40,2012-12-13 08:53:00
2:53 AM,23.0,12.0,63,30.09,10.0,NNE,9.2,-,N/A,,Clear,20,2012-12-13 09:53:00
3:53 AM,21.0,10.9,65,30.11,10.0,NNE,11.5,-,N/A,,Clear,20,2012-12-13 10:53:00
4:53 AM,21.0,10.0,63,30.12,10.0,North,12.7,-,N/A,,Clear,10,2012-12-13 11:53:00
5:53 AM,21.9,10.9,63,30.14,10.0,North,13.8,-,N/A,,Clear,360,2012-12-13 12:53:00
6:53 AM,21.9,10.0,60,30.20,10.0,NNE,15.0,-,N/A,,Clear,20,2012-12-13 13:53:00
7:53 AM,25.0,12.0,58,30.19,10.0,North,13.8,17.3,N/A,,Clear,10,2012-12-13 14:53:00
8:53 AM,28.0,12.9,53,30.20,10.0,North,16.1,-,N/A,,Clear,10,2012-12-13 15:53:00
9:53 AM,30.9,14.0,50,30.19,10.0,North,11.5,-,N/A,,Clear,10,2012-12-13 16:53:00
10:53 AM,37.0,15.1,41,30.15,10.0,North,15.0,-,N/A,,Clear,10,2012-12-13 17:53:00
11:53 AM,42.1,15.1,34,30.12,10.0,NNE,10.4,-,N/A,,Clear,20,2012-12-13 18:53:00
12:53 PM,46.0,15.1,29,30.07,10.0,Calm,Calm,-,N/A,,Clear,0,2012-12-13 19:53:00
1:53 PM,50.0,19.0,29,30.00,10.0,West,9.2,-,N/A,,Clear,260,2012-12-13 20:53:00
2:53 PM,50.0,18.0,28,29.96,10.0,SSW,5.8,-,N/A,,Clear,210,2012-12-13 21:53:00
6:53 PM,28.9,21.9,75,30.06,10.0,NNW,5.8,-,N/A,,Clear,330,2012-12-14 01:53:00
7:53 PM,32.0,19.9,61,30.04,10.0,Calm,Calm,-,N/A,,Clear,0,2012-12-14 02:53:00
8:53 PM,30.9,19.0,61,30.02,10.0,NW,3.5,-,N/A,,Clear,310,2012-12-14 03:53:00
9:53 PM,27.0,19.0,72,30.02,10.0,North,4.6,-,N/A,,Clear,350,2012-12-14 04:53:00
11:53 PM,36.0,19.9,52,29.91,10.0,SSE,5.8,-,N/A,,Clear,160,2012-12-14 06:53:00